Skip Page Navigation
NASA JPL Caltech
NASA Logo - Jet Propulsion Laboratory + View the NASA Portal
+ Center for Near-Earth Object Studies
JPL Home Earth Solar System Stars & Galaxies Technology
JPL Solar System Dynamics
BODIES ORBITS EPHEMERIDES TOOLS PHYSICAL DATA DISCOVERY FAQ SITE MAP
IMPORTANT: The SSD Announcement email list is now available. Major changes are coming in the near future, including possible hostname and/or URL changes. To be notified of such changes, subscribe to this email list.

Please visit this page for more details.


JPL Small-Body Database Browser
Search: [ help ]  
212633 (2006 TV95)
Classification: Main-belt Asteroid          SPK-ID: 2212633
Ephemeris | Orbit Diagram | Orbital Elements | Mission Design | Physical Parameters | Discovery Circumstances ]

[ show orbit diagram ]
Orbital Elements at Epoch 2458600.5 (2019-Apr-27.0) TDB
Reference: JPL 13 (heliocentric ecliptic J2000)
 Element Value Uncertainty (1-sigma)   Units 
e .1778693896843276 1.1916e-07  
a 2.602243095339146 4.1072e-08 au
q 2.139383704160917 3.3351e-07 au
i 12.37031244492539 1.0337e-05 deg
node 329.3314162091317 1.8573e-05 deg
peri 325.7242023634252 3.4272e-05 deg
M 59.72079109636691 2.0035e-05 deg
tp 2458346.143245197501
(2018-Aug-15.64324520)
8.6882e-05 TDB
period 1533.275598796782
4.20
3.63e-05
9.938e-08
d
yr
n .2347914492883767 5.5586e-09 deg/d
Q 3.065102486517376 4.8377e-08 au
  Orbit Determination Parameters
   # obs. used (total)      364  
   data-arc span      5752 days (15.75 yr)  
   first obs. used      2002-10-06  
   last obs. used      2018-07-06  
   planetary ephem.      DE431  
   SB-pert. ephem.      SB431-N16  
   condition code      0  
   norm. resid. RMS      .57398  
   source      ORB  
   producer      Otto Matic  
   solution date      2018-Oct-04 08:30:59  

Additional Information
 Earth MOID = 1.13491 au 
 Jupiter MOID = 2.22632 au 
 T_jup = 3.359 
[ show covariance matrix ]

Ephemeris | Orbit Diagram | Orbital Elements | Mission Design | Physical Parameters | Discovery Circumstances ]

Physical Parameter Table
Parameter Symbol Value Units Sigma Reference Notes
absolute magnitude H 15.5   n/a MPO454526  
diameter diameter 1.850 km 0.337 urn:nasa:pds:neowise_diameters_albedos::2.0[mainbelt] (http://adsabs.harvard.edu/abs/2011ApJ...741...68M)  
geometric albedo albedo 0.391   0.136 urn:nasa:pds:neowise_diameters_albedos::2.0[mainbelt] (http://adsabs.harvard.edu/abs/2011ApJ...741...68M)  

212633 (2006 TV95)          Discovered 2006-Oct-12 by NEAT at Palomar
Reference: 20090409/Numbers.arcLast Updated: 2009-04-10
Ephemeris | Orbit Diagram | Orbital Elements | Mission Design | Physical Parameters | Discovery Circumstances ]
ABOUT SSD CREDITS/AWARDS PRIVACY/COPYRIGHT GLOSSARY LINKS
FirstGov
(server date/time)  
NASA Home Page
Site Manager:   Ryan S. Park
Webmaster  Alan B. Chamberlin